{"data":{"norad_id":54128,"intl_designator":"2022-138R","name":"ONEWEB-0510","alt_names":[],"object_type":"PAYLOAD","status":"ACTIVE","operator":null,"country":"UK","launch_date":"2022-10-22","launch_site_code":"SRILR","launch_vehicle":null,"mission":null,"orbit_class":"UNKNOWN","rcs_meters":null,"size_class":null,"mass_kg":null,"dimensions":null,"purposes":["comms"],"wikipedia_slug":null,"has_3d_model":false,"image_url":null,"decayed_at":null,"tle_current":{"epoch":"2026-09-19T18:03:13.336416Z","epoch_age_seconds":90443,"freshness":"FRESH","line1":"1 54128U 22138R   26262.75223769  .00000063  00000+0  12258-3 0  9994","line2":"2 54128  87.9144 255.5700 0002003 100.5169 259.6190 13.20770241191769","mean_motion":13.20770241,"eccentricity":0.0002003,"inclination_deg":87.9144,"raan_deg":255.57,"arg_perigee_deg":100.5169,"mean_anomaly_deg":259.619,"bstar":0.00012258,"rev_number":19176,"period_min":109.02728993271,"perigee_km":1180.2651198382,"apogee_km":1183.2936223365,"semimajor_km":7559.9163710873,"source":"CELESTRAK","updated_at":"2026-09-20T09:00:44.718147Z"}}}